FENGYUN 1C DEB

Satellite information

Favourite Embed

Satellite Type and Status

DEBRISIN ORBIT

Key statistics

Satellite FENGYUN 1C DEB at a glance.

Uptime

9714

Days in orbit

Revolutions

≈ 14.4

Per day

Orbit

SSO

Sun Synchronous Orbit

Inclination

99.3

Latest

Satellite identification and parameters

Extended collection of information and parameters for FENGYUN 1C DEB.

Object identification

Identified? True

Debris? True

Object name: FENGYUN 1C DEB

International designator: 1999-025AWG

Object number (NORAD): 30846

Object ID (CCSDS): 30846

Country: PEOPLES REPUBLIC OF CHINA (PRC)

Current information (Y/N): Y

RCS size: SMALL

Orbital parameters

Period: 99.894 minutes

Inclination: 99.321 deg

SMA: 7131.572 km

Apoapsis: 791.97 km

Periapsis: 714.905 km

RAAN: 158.5318 deg

Eccentricy: 0.00540308

Argument of periapsis: 340.2812 deg

Mean anomaly: 81.0151 deg

Mean motion: 14.41533792 rev/day

Mean motion (dot): 0.00004671 rev/day2

B* drag term: 0.0014276242 1/REarth

Two-line elements (TLE)

Creation date: Dec. 11, 2025, 7:14 p.m.

Reference frame: TEME

Reference center: EARTH

Epoch: Dec. 11, 2025, 10:33 a.m. UTC

TLE line 0: 0 FENGYUN 1C DEB

TLE line 1: 1 30846U 99025AWG 25345.44006391 .00004671 00000-0 14276-2 0 9992

TLE line 2: 2 30846 99.3210 158.5318 0054031 340.2812 81.0151 14.41533792979113

Live tracking on map

Real-time ground track for satellite FENGYUN 1C DEB.

In-orbit conjunctions

A list of the most updated potential collisions computed for object FENGYUN 1C DEB.

Target Orbit TCA Probability of collision Miss distance Type
SL-3 DEB LEO 2025-07-19 23:17:00 0.000443562 103.0 (m) DEBRIS
CZ-6A DEB SSO 2025-07-02 00:40:58 0.0001478279 48.0 (m) DEBRIS
CZ-2D R/B SSO 2025-03-11 00:42:01 0.0001313752 984.0 (m) ROCKET BODY
CZ-6A DEB LEO 2025-02-27 03:17:35 0.0002866083 508.0 (m) DEBRIS
SL-3 R/B LEO 2025-02-12 00:03:05 0.0002717454 689.0 (m) ROCKET BODY

Associated space launch

Chinese polar orbiting meteorological satellite

FENGYUN 1C DEB was lifted into orbit during the mission ‘Long March 4B | Feng Yun 1C’, on board a Long March 4B space rocket.

The launch took place on May 10, 1999, 1:33 a.m. from Launch Complex 7.

For more information about the launch, click the button.

Launch to space Long March 4B | Feng Yun 1C
Long March 4B | Feng Yun 1C

Agency: N/A

Status: Launch Successful

Launch date: May 10, 1999, 1:33 a.m. UTC

Rocket: Long March 4B

Launch pad: Launch Complex 7

Location: Taiyuan Satellite Launch Center, People's Republic of China

...

Latest news about this satellite

There are no fresh news available about this satellite. Check back as we update our databases every day.


Newsletter sign-up

Weekly statistics, charts and insights to help you stay on top of the space industry.